This demonstration page uses our WeatherBlox Daily Observations layout. Learn more.

Left ArrowRight Arrow

Hourly Observations for January 24, 2020

Temp ( °F °C ) Dew Point ( °F °C ) Humidity (%) Winds ( mph kmh ) Pressure ( in mb ) Visibility ( mi km ) Precip ( " mm )
12:12 am 00:12 Cloudy with Light Rain 41 5 38 3.3 89 89 ENE 6 9 30.12 1020 5 8 0.03 0.76
12:47 am 00:47 Cloudy with Rain 41 5 39 4 93 93 ENE 10 17 30.10 1019 4 6 0.16 4.06
12:49 am 00:49 Cloudy with Rain 41 5 39 4 93 93 E 8 13 30.09 1019 4 6 0.17 4.32
12:53 am 00:53 Cloudy with Light Rain 41 5 39 3.9 93 93 E 8 13 30.07 1018 5 8 0.17 4.32
1:08 am 01:08 Cloudy with Rain 41 5 39 3.9 93 93 E 8 13 30.09 1019 6 10 0.03 0.76
1:24 am 01:24 Cloudy with Light Rain 42 5.6 39 3.9 89 89 ENE 8 13 30.08 1018 7 11 0.05 1.27
1:51 am 01:51 Cloudy with Rain 43 6 39 4 87 87 E 9 15 30.07 1018 5 8 0.08 2.03
1:53 am 01:53 Cloudy with Rain 42 5.6 39 3.9 89 89 E 8 13 30.05 1018 5 8 0.09 2.29
2:02 am 02:02 Cloudy with Light Rain 42 5.6 39 3.9 89 89 E 7 11 30.08 1018 6 10 0.01 0.25
2:53 am 02:53 Cloudy with Light Rain 42 5.6 39 3.9 89 89 E 8 13 30.03 1017 8 13 0.07 1.78
3:53 am 03:53 Cloudy with Light Rain 42 5.6 40 4.4 92 92 ENE 7 11 30.00 1016 8 13 0.03 0.76
4:53 am 04:53 Cloudy with Light Rain 42 5.6 40 4.4 92 92 ENE 6 9 29.98 1015 6 10 0.04 1.02
5:53 am 05:53 Cloudy with Rain 43 6.1 41 5 93 93 ENE 5 7 29.97 1015 5 8 0.09 2.29
6:18 am 06:18 Cloudy with Heavy Rain 42 5.6 40 4.4 92 92 Calm 30.02 1016 2 3 0.10 2.54
6:40 am 06:40 Cloudy with Light Rain 43 6.1 42 5.6 97 97 ENE 3 6 30.01 1016 5 8 0.16 4.06
6:53 am 06:53 Cloudy with Light Rain 43 6.1 41 5 93 93 Calm 30.00 1016 4 6 0.17 4.32
7:53 am 07:53 Cloudy with Mist and Fog 43 6.1 41 5 93 93 E 5 7 29.99 1016 5 8 0.01 0.25
8:05 am 08:05 Cloudy 43 6.1 41 5 93 93 NNE 3 6 30.02 1017 8 13 0.00 0.00
8:53 am 08:53 Cloudy 44 6.7 42 5.6 93 93 VRB 3 6 29.99 1016 10 16 0.00 0.00
9:00 am 09:00 Cloudy 44 6.7 42 5.6 93 93 Calm 30.01 1016 10 16 0.00 0.00
9:53 am 09:53 Cloudy with Light Rain 45 7.2 43 6.1 93 93 Calm 30.00 1016 3 4 0.02 0.51
10:01 am 10:01 Cloudy with Light Rain 45 7.2 43 6.1 93 93 Calm 30.03 1017 3 5 0.00 0.00
10:53 am 10:53 Cloudy with Mist and Fog 47 8.3 45 7.2 93 93 NE 3 6 30.00 1016 3 5 0.00 0.00
11:02 am 11:02 Cloudy with Mist and Fog 47 8.3 45 7.2 93 93 ENE 3 6 30.01 1016 3 5 0.00 0.00
11:15 am 11:15 Cloudy with Mist and Fog 47 8.3 45 7.2 93 93 Calm 30.01 1016 3 5 0.00 0.00
11:53 am 11:53 Cloudy with Mist and Fog 49 9.4 47 8.3 93 93 E 5 7 29.98 1015 3 5 0.00 0.00
12:20 pm 12:20 Cloudy with Light Rain 49 9.4 47 8.3 93 93 Calm 29.98 1015 4 6 0.01 0.25
12:53 pm 12:53 Cloudy with Light Rain 49 9.4 47 8.3 93 93 Calm 29.96 1014 3 5 0.01 0.25
1:18 pm 13:18 Cloudy with Mist and Fog 49 9.4 48 8.9 97 97 Calm 29.96 1015 2 3 0.00 0.00
1:37 pm 13:37 Cloudy with Mist and Fog 50 10 49 9.4 96 96 Calm 29.95 1014 2 3 0.00 0.00
1:53 pm 13:53 Cloudy with Mist and Fog 50 10 49 9.4 96 96 Calm 29.94 1014 2 3 0.01 0.25
2:04 pm 14:04 Cloudy with Mist and Fog 51 10.6 49 9.4 92 92 VRB 3 6 29.95 1014 4 6 0.00 0.00
2:53 pm 14:53 Cloudy 53 11.7 50 10 89 89 SW 5 7 29.92 1013 10 16 0.00 0.00
3:00 pm 15:00 Mostly Cloudy 53 11.7 50 10 89 89 WSW 5 7 29.92 1013 10 16 0.00 0.00
3:13 pm 15:13 Partly Cloudy 54 12.2 50 10 87 87 VRB 5 7 29.92 1013 10 16 0.00 0.00
3:16 pm 15:16 Mostly Cloudy 54 12.2 50 10 87 87 SSW 8 13 29.92 1013 10 16 0.00 0.00
3:53 pm 15:53 Mostly Sunny 56 13.3 50 10 81 81 SW 5 7 29.91 1013 10 16 0.00 0.00
4:53 pm 16:53 Mostly Sunny 56 13.3 47 8.3 72 72 SW 5 7 29.91 1013 10 16 0.00 0.00
5:53 pm 17:53 Mostly Sunny 54 12.2 44 6.7 69 69 W 3 6 29.93 1013 10 16 0.00 0.00
6:53 pm 18:53 Clear 49 9.4 42 5.6 77 77 SW 3 6 29.96 1014 10 16 0.00 0.00
7:53 pm 19:53 Clear 45 7.2 41 5 86 86 Calm 29.97 1015 10 16 0.00 0.00
8:53 pm 20:53 Clear 43 6.1 40 4.4 89 89 Calm 29.98 1015 10 16 0.00 0.00
9:53 pm 21:53 Clear with Light Rain 40 4.4 39 3.9 97 97 Calm 29.99 1016 10 16 0.00 0.00
10:31 pm 22:31 Mostly Clear with Mist and Fog 38 3.3 37 2.8 97 97 Calm 30.01 1016 2 3 0.00 0.00
10:41 pm 22:41 Mostly Clear with Light Rain 39 3.9 37 2.8 93 93 Calm 30.02 1017 10 16 0.00 0.00
10:53 pm 22:53 Clear 40 4.4 38 3.3 93 93 Calm 29.99 1016 10 16 0.00 0.00
11:53 pm 23:53 Clear 43 6.1 37 2.8 80 80 WNW 6 9 30.00 1016 10 16 0.00 0.00

Powered by AerisWeather